Time,TemperatureF,DewpointF,PressureIn,WindDirection,WindDirectionDegrees,WindSpeedMPH,WindSpeedGustMPH,Humidity,HourlyPrecipIn,Conditions,Clouds,dailyrainin,SoftwareType,DateUTC
2013-07-11 00:04:00,54.4,53.0,29.79,West,272,0.0,3.0,94,0.00,,,0.00,weatherlink.com 1.10,2013-07-11 04:04:00,
2013-07-11 00:19:00,54.8,53.0,29.79,NNW,332,0.0,3.0,92,0.00,,,0.00,weatherlink.com 1.10,2013-07-11 04:19:00,
2013-07-11 00:34:00,54.2,52.0,29.79,North,353,0.0,2.0,93,0.00,,,0.00,weatherlink.com 1.10,2013-07-11 04:34:00,
2013-07-11 00:49:00,54.2,52.0,29.80,WSW,257,0.0,2.0,92,0.00,,,0.00,weatherlink.com 1.10,2013-07-11 04:49:00,
2013-07-11 01:04:00,54.2,52.0,29.80,West,280,0.0,2.0,92,0.00,,,0.00,weatherlink.com 1.10,2013-07-11 05:04:00,
2013-07-11 01:19:00,53.9,52.0,29.81,North,349,0.0,1.0,92,0.00,,,0.00,weatherlink.com 1.10,2013-07-11 05:19:00,
2013-07-11 01:34:00,53.8,51.0,29.81,WSW,255,1.0,2.0,91,0.00,,,0.00,weatherlink.com 1.10,2013-07-11 05:34:00,
2013-07-11 01:49:00,53.7,51.0,29.81,NNE,12,1.0,2.0,91,0.00,,,0.00,weatherlink.com 1.10,2013-07-11 05:49:00,
2013-07-11 02:05:00,53.7,52.0,29.82,WNW,291,0.0,4.0,92,0.00,,,0.00,weatherlink.com 1.10,2013-07-11 06:05:00,
2013-07-11 02:19:00,53.7,52.0,29.82,West,271,1.0,5.0,92,0.00,,,0.00,weatherlink.com 1.10,2013-07-11 06:19:00,
2013-07-11 02:34:00,53.5,51.0,29.82,West,274,1.0,6.0,92,0.00,,,0.00,weatherlink.com 1.10,2013-07-11 06:34:00,
2013-07-11 02:49:00,53.4,51.0,29.82,SW,231,0.0,6.0,92,0.00,,,0.00,weatherlink.com 1.10,2013-07-11 06:49:00,
2013-07-11 03:04:00,53.3,51.0,29.83,West,278,0.0,4.0,92,0.00,,,0.00,weatherlink.com 1.10,2013-07-11 07:04:00,
2013-07-11 03:19:00,53.2,51.0,29.83,WNW,287,1.0,6.0,93,0.00,,,0.00,weatherlink.com 1.10,2013-07-11 07:19:00,
2013-07-11 03:34:00,53.0,51.0,29.83,West,270,2.0,6.0,93,0.00,,,0.00,weatherlink.com 1.10,2013-07-11 07:34:00,
2013-07-11 03:49:00,52.9,51.0,29.84,West,266,1.0,4.0,93,0.00,,,0.00,weatherlink.com 1.10,2013-07-11 07:49:00,
2013-07-11 04:04:00,52.5,51.0,29.84,WSW,248,2.0,4.0,94,0.00,,,0.00,weatherlink.com 1.10,2013-07-11 08:04:00,
2013-07-11 04:19:00,52.3,51.0,29.85,WSW,257,2.0,3.0,94,0.00,,,0.00,weatherlink.com 1.10,2013-07-11 08:19:00,
2013-07-11 04:34:00,52.2,51.0,29.85,WSW,257,1.0,4.0,94,0.00,,,0.00,weatherlink.com 1.10,2013-07-11 08:34:00,
2013-07-11 04:49:00,52.1,51.0,29.86,West,280,1.0,6.0,94,0.00,,,0.00,weatherlink.com 1.10,2013-07-11 08:49:00,
2013-07-11 05:04:00,52.1,51.0,29.86,West,264,0.0,4.0,95,0.00,,,0.00,weatherlink.com 1.10,2013-07-11 09:04:00,
2013-07-11 05:20:00,52.5,51.0,29.87,West,274,2.0,5.0,94,0.00,,,0.00,weatherlink.com 1.10,2013-07-11 09:20:00,
2013-07-11 05:35:00,52.6,51.0,29.88,West,260,4.0,4.0,95,0.00,,,0.00,weatherlink.com 1.10,2013-07-11 09:35:00,
2013-07-11 05:49:00,52.7,51.0,29.88,SSW,211,0.0,5.0,95,0.00,,,0.00,weatherlink.com 1.10,2013-07-11 09:49:00,
2013-07-11 06:05:00,52.7,51.0,29.89,West,276,0.0,5.0,95,0.00,,,0.00,weatherlink.com 1.10,2013-07-11 10:05:00,
2013-07-11 06:20:00,53.0,52.0,29.89,West,280,0.0,4.0,95,0.00,,,0.00,weatherlink.com 1.10,2013-07-11 10:20:00,
2013-07-11 06:35:00,53.9,52.0,29.90,WNW,285,0.0,3.0,94,0.00,,,0.00,weatherlink.com 1.10,2013-07-11 10:35:00,
2013-07-11 06:50:00,55.2,53.0,29.91,WSW,249,3.0,4.0,92,0.00,,,0.00,weatherlink.com 1.10,2013-07-11 10:50:00,
2013-07-11 07:05:00,55.8,53.0,29.92,West,267,0.0,3.0,91,0.00,,,0.00,weatherlink.com 1.10,2013-07-11 11:05:00,
2013-07-11 07:20:00,56.4,54.0,29.92,WNW,282,0.0,5.0,90,0.00,,,0.00,weatherlink.com 1.10,2013-07-11 11:20:00,
2013-07-11 07:35:00,57.4,55.0,29.93,WSW,246,3.0,4.0,90,0.00,,,0.00,weatherlink.com 1.10,2013-07-11 11:35:00,
2013-07-11 07:50:00,58.6,55.0,29.93,WSW,256,4.0,5.0,89,0.00,,,0.00,weatherlink.com 1.10,2013-07-11 11:50:00,
2013-07-11 08:05:00,59.9,56.0,29.94,SE,129,1.0,4.0,86,0.00,,,0.00,weatherlink.com 1.10,2013-07-11 12:05:00,
2013-07-11 08:20:00,60.9,56.0,29.94,West,270,1.0,4.0,84,0.00,,,0.00,weatherlink.com 1.10,2013-07-11 12:20:00,
2013-07-11 08:35:00,61.3,55.0,29.95,North,8,0.0,8.0,80,0.00,,,0.00,weatherlink.com 1.10,2013-07-11 12:35:00,
2013-07-11 08:50:00,61.6,55.0,29.95,NW,315,4.0,10.0,78,0.00,,,0.00,weatherlink.com 1.10,2013-07-11 12:50:00,
2013-07-11 09:05:00,61.7,54.0,29.95,NNW,345,7.0,12.0,75,0.00,,,0.00,weatherlink.com 1.10,2013-07-11 13:05:00,
2013-07-11 09:20:00,61.9,55.0,29.95,NNE,20,5.0,12.0,77,0.00,,,0.00,weatherlink.com 1.10,2013-07-11 13:20:00,
2013-07-11 09:35:00,61.9,54.0,29.96,North,4,7.0,10.0,76,0.00,,,0.00,weatherlink.com 1.10,2013-07-11 13:35:00,
2013-07-11 09:50:00,62.5,55.0,29.96,North,1,5.0,10.0,75,0.00,,,0.00,weatherlink.com 1.10,2013-07-11 13:50:00,
2013-07-11 10:05:00,62.6,55.0,29.96,NNE,26,6.0,8.0,76,0.00,,,0.00,weatherlink.com 1.10,2013-07-11 14:05:00,
2013-07-11 10:20:00,63.2,54.0,29.97,North,4,3.0,8.0,73,0.00,,,0.00,weatherlink.com 1.10,2013-07-11 14:20:00,
2013-07-11 10:35:00,63.6,54.0,29.97,NNW,345,5.0,7.0,72,0.00,,,0.00,weatherlink.com 1.10,2013-07-11 14:35:00,
2013-07-11 10:51:00,63.7,54.0,29.98,NNE,18,3.0,7.0,70,0.00,,,0.00,weatherlink.com 1.10,2013-07-11 14:51:00,
2013-07-11 11:06:00,64.1,55.0,29.98,NNE,21,3.0,5.0,73,0.00,,,0.00,weatherlink.com 1.10,2013-07-11 15:06:00,
2013-07-11 11:21:00,64.5,55.0,29.98,North,352,4.0,7.0,70,0.00,,,0.00,weatherlink.com 1.10,2013-07-11 15:21:00,
2013-07-11 11:36:00,64.7,54.0,29.98,NE,34,6.0,6.0,68,0.00,,,0.00,weatherlink.com 1.10,2013-07-11 15:36:00,
2013-07-11 11:51:00,64.5,55.0,29.98,NNE,13,4.0,8.0,70,0.00,,,0.00,weatherlink.com 1.10,2013-07-11 15:51:00,
2013-07-11 12:21:00,65.8,55.0,29.98,NNE,18,4.0,5.0,69,0.00,,,0.00,weatherlink.com 1.10,2013-07-11 16:21:00,
2013-07-11 12:51:00,66.8,55.0,29.98,NNE,14,3.0,6.0,66,0.00,,,0.00,weatherlink.com 1.10,2013-07-11 16:51:00,
2013-07-11 13:06:00,67.3,56.0,29.98,NNE,16,4.0,7.0,68,0.00,,,0.00,weatherlink.com 1.10,2013-07-11 17:06:00,
2013-07-11 13:21:00,67.3,56.0,29.98,North,9,6.0,7.0,67,0.00,,,0.00,weatherlink.com 1.10,2013-07-11 17:21:00,
2013-07-11 13:36:00,68.6,56.0,29.97,North,7,3.0,9.0,65,0.00,,,0.00,weatherlink.com 1.10,2013-07-11 17:36:00,
2013-07-11 13:51:00,69.7,56.0,29.97,SSW,195,0.0,8.0,63,0.00,,,0.00,weatherlink.com 1.10,2013-07-11 17:51:00,
2013-07-11 14:06:00,70.9,59.0,29.97,NNW,340,3.0,7.0,66,0.00,,,0.00,weatherlink.com 1.10,2013-07-11 18:06:00,
2013-07-11 14:21:00,70.0,58.0,29.97,South,174,2.0,9.0,67,0.00,,,0.00,weatherlink.com 1.10,2013-07-11 18:21:00,
2013-07-11 14:37:00,70.3,57.0,29.97,SSE,159,0.0,7.0,63,0.00,,,0.00,weatherlink.com 1.10,2013-07-11 18:37:00,
2013-07-11 14:51:00,70.2,57.0,29.96,NNE,18,5.0,8.0,64,0.00,,,0.00,weatherlink.com 1.10,2013-07-11 18:51:00,
2013-07-11 15:06:00,70.3,57.0,29.97,WNW,298,3.0,10.0,62,0.00,,,0.00,weatherlink.com 1.10,2013-07-11 19:06:00,
2013-07-11 15:21:00,70.5,57.0,29.97,NNW,342,1.0,8.0,62,0.00,,,0.00,weatherlink.com 1.10,2013-07-11 19:21:00,
2013-07-11 15:51:00,71.0,55.0,29.96,NNE,24,2.0,7.0,58,0.00,,,0.00,weatherlink.com 1.10,2013-07-11 19:51:00,
2013-07-11 16:06:00,71.6,56.0,29.96,WNW,302,2.0,7.0,59,0.00,,,0.00,weatherlink.com 1.10,2013-07-11 20:06:00,
2013-07-11 16:21:00,72.1,57.0,29.96,NW,311,3.0,8.0,60,0.00,,,0.00,weatherlink.com 1.10,2013-07-11 20:21:00,
2013-07-11 16:36:00,71.5,57.0,29.96,North,1,6.0,7.0,61,0.00,,,0.00,weatherlink.com 1.10,2013-07-11 20:36:00,
2013-07-11 16:51:00,72.5,57.0,29.96,SW,236,2.0,5.0,58,0.00,,,0.00,weatherlink.com 1.10,2013-07-11 20:51:00,
2013-07-11 17:06:00,72.1,56.0,29.96,WSW,250,5.0,5.0,57,0.00,,,0.00,weatherlink.com 1.10,2013-07-11 21:06:00,
2013-07-11 17:21:00,72.7,57.0,29.96,SSE,156,1.0,5.0,58,0.00,,,0.00,weatherlink.com 1.10,2013-07-11 21:21:00,
2013-07-11 17:36:00,72.8,57.0,29.96,NW,306,3.0,6.0,57,0.00,,,0.00,weatherlink.com 1.10,2013-07-11 21:36:00,
2013-07-11 18:06:00,72.6,58.0,29.95,West,267,1.0,6.0,60,0.00,,,0.00,weatherlink.com 1.10,2013-07-11 22:06:00,
2013-07-11 18:36:00,72.7,57.0,29.95,NW,304,2.0,6.0,58,0.00,,,0.00,weatherlink.com 1.10,2013-07-11 22:36:00,
2013-07-11 18:51:00,72.9,56.0,29.95,NNW,343,3.0,6.0,56,0.00,,,0.00,weatherlink.com 1.10,2013-07-11 22:51:00,
2013-07-11 19:36:00,71.6,54.0,29.95,WNW,301,1.0,5.0,55,0.00,,,0.00,weatherlink.com 1.10,2013-07-11 23:36:00,
2013-07-11 19:51:00,71.2,55.0,29.96,NNW,345,0.0,3.0,56,0.00,,,0.00,weatherlink.com 1.10,2013-07-11 23:51:00,
2013-07-11 20:06:00,71.0,55.0,29.95,West,264,0.0,2.0,58,0.00,,,0.00,weatherlink.com 1.10,2013-07-12 00:06:00,
2013-07-11 20:36:00,67.1,55.0,29.96,WSW,252,0.0,0.0,66,0.00,,,0.00,weatherlink.com 1.10,2013-07-12 00:36:00,
2013-07-11 21:06:00,63.2,56.0,29.95,WSW,251,0.0,-999.0,77,-99.99,,,0.00,weatherlink.com 1.10,2013-07-12 01:06:00,
2013-07-11 21:21:00,61.7,56.0,29.95,WSW,253,0.0,1.0,80,0.00,,,0.00,weatherlink.com 1.10,2013-07-12 01:21:00,
2013-07-11 21:36:00,60.5,55.0,29.95,WSW,255,0.0,1.0,82,0.00,,,0.00,weatherlink.com 1.10,2013-07-12 01:36:00,
2013-07-11 22:07:00,58.2,54.0,29.96,WSW,242,1.0,1.0,85,0.00,,,0.00,weatherlink.com 1.10,2013-07-12 02:07:00,
2013-07-11 22:22:00,57.6,54.0,29.96,West,262,0.0,1.0,87,0.00,,,0.00,weatherlink.com 1.10,2013-07-12 02:22:00,
2013-07-11 22:37:00,56.7,53.0,29.96,West,259,0.0,1.0,87,0.00,,,0.00,weatherlink.com 1.10,2013-07-12 02:37:00,
2013-07-11 22:52:00,55.8,52.0,29.97,WSW,249,0.0,1.0,88,0.00,,,0.00,weatherlink.com 1.10,2013-07-12 02:52:00,
2013-07-11 23:07:00,55.9,52.0,29.96,SW,236,0.0,1.0,87,0.00,,,0.00,weatherlink.com 1.10,2013-07-12 03:07:00,
2013-07-11 23:22:00,54.8,52.0,29.97,SW,220,0.0,1.0,89,0.00,,,0.00,weatherlink.com 1.10,2013-07-12 03:22:00,
2013-07-11 23:37:00,54.5,52.0,29.97,SW,236,0.0,0.0,90,0.00,,,0.00,weatherlink.com 1.10,2013-07-12 03:37:00,
2013-07-11 23:52:00,53.7,51.0,29.97,West,259,0.0,1.0,91,0.00,,,0.00,weatherlink.com 1.10,2013-07-12 03:52:00,